Home   Weather   Abu Dhabi   Past weeks

Flag for United Arab Emirates Past Weather in Abu Dhabi, Abu Dhabi, United Arab Emirates — Yesterday and Last 2 Weeks

Now
72 °F

Fog.


Feels Like: 67 °F
Forecast: 79 / 83 °F
Wind: No wind

Location: Abu Dhabi Bateen Airport

Current Time: Dec 3, 2016 at 4:39:31 am

Latest Report: Dec 3, 2016 at 4:00 am


Visibility: 2 mi

Pressure: 30.04 "Hg

Humidity: 94%

Dew Point: 70 °F

Location of Abu DhabiLocation

Past Weather in Abu Dhabi — Graph

°F

Abu Dhabi Temperature Yesterday

Maximum temperature yesterday: 86 °F (at 2:00 pm)
Minimum temperature yesterday: 70 °F (at 7:00 am)
Average temperature yesterday: 78 °F

High & Low Weather Summary for the Past Weeks

 TemperatureHumidityPressure
High90 °F (Nov 24, 2:00 pm)94% (Nov 18, 7:00 am)30.12 "Hg (Nov 18, 7:00 am)
Low68 °F (Nov 18, 7:00 am)29% (Nov 24, 2:00 pm)29.86 "Hg (Nov 20, 2:00 pm)
Average78 °F66%30.00 "Hg
* Reported Nov 18 3:00 am — Dec 3 3:00 am, Abu Dhabi, Weather by CustomWeather, © 2016

Note: Actual official high and low records may vary slightly from our data, if they occured in-between our weather recording intervals... More about our weather records

Advertising

Abu Dhabi Weather History for the Previous 24 Hours

Scroll right to see more
 ConditionsComfort  
Time TempWeatherWind HumidityBarometerVisibility
3:00 am
Sat, Dec 3
73 °FHaze.No wind94%30.04 "Hg3 mi
2:00 am75 °FHaze.3 mph89%30.07 "Hg3 mi
1:00 am75 °FClear.2 mph89%30.07 "Hg4 mi
12:00 am75 °FHaze.2 mph94%30.07 "Hg3 mi
11:00 pm
Fri, Dec 2
77 °FClear.3 mph89%30.07 "Hg10 mi
10:00 pm77 °FClear.6 mph89%30.07 "Hg10 mi
9:00 pm77 °FClear.8 mph89%30.07 "Hg10 mi
8:00 pm79 °FClear.8 mph79%30.07 "Hg10 mi
7:00 pm79 °FClear.9 mph79%30.04 "Hg10 mi
6:00 pm81 °FClear.7 mph70%30.04 "Hg10 mi
5:00 pm82 °FSunny.9 mph62%30.01 "Hg10 mi
4:00 pm84 °FPassing clouds.8 mph55%30.01 "HgN/A
3:00 pm86 °FPassing clouds.7 mph52%30.01 "HgN/A
2:00 pm86 °FPassing clouds.6 mph49%30.01 "HgN/A
1:00 pm84 °FPassing clouds.6 mph48%30.04 "HgN/A
12:00 pm82 °FPassing clouds.6 mph58%30.07 "HgN/A
11:00 am81 °FPassing clouds.5 mph66%30.09 "HgN/A
10:00 am81 °FClear.1 mph70%30.12 "Hg6 mi
9:00 am73 °FClear.6 mph83%30.09 "Hg5 mi
8:00 am72 °FMild.3 mph88%30.07 "Hg4 mi
7:00 am70 °FClear.2 mph88%30.07 "Hg5 mi
6:00 am72 °FClear.1 mph88%30.04 "Hg5 mi
5:00 am72 °FClear.No wind88%30.04 "Hg10 mi
4:00 am73 °FClear.No wind83%30.01 "Hg10 mi
Weather by CustomWeather, © 2016

See weather overviewHow to use our weather pages